GFSFLT1_850_thetae_120.txt.gz
Theta_e
339 339 335 333 329 331 335 332 331 331 322 314 313 312 313 316 323 321 320 326 314 312 313 314 314 314 314 314 315 319 324 318 322
340 338 333 329 330 331 334 332 332 330 316 312 312 312 312 324 327 328 327 320 314 313 314 314 314 314 314 315 317 320 318 321 325
339 336 329 323 325 330 332 332 330 320 313 312 313 314 315 322 324 325 318 314 314 313 314 314 314 314 314 315 315 315 316 316 317
336 332 323 322 327 329 333 328 322 314 313 313 315 315 316 324 324 324 319 313 313 313 314 314 314 314 314 314 314 315 315 315 315
336 329 319 322 330 331 328 320 315 313 313 315 315 315 316 319 322 325 314 313 313 313 313 313 314 314 314 313 313 313 313 313 313
335 323 320 323 330 326 323 316 313 313 314 315 315 317 321 324 326 320 316 315 314 314 314 314 313 313 313 313 313 312 312 312 312
335 317 324 327 329 322 319 315 315 315 316 317 318 320 321 322 326 318 318 317 316 316 315 315 315 314 314 314 313 313 313 312 313
333 318 327 329 326 322 318 318 320 320 320 320 320 320 320 322 321 318 318 318 318 317 317 317 317 317 317 317 316 315 315 314 315
333 330 331 331 330 328 321 324 322 322 321 321 320 320 319 320 322 318 318 318 318 318 318 319 319 319 320 319 319 318 318 318 318
331 331 332 331 330 327 324 324 323 323 324 323 321 321 321 320 320 322 319 319 319 319 320 320 321 321 321 321 320 320 320 319 319
330 331 332 331 329 325 322 325 326 325 326 325 323 322 321 321 320 323 320 320 320 320 320 321 322 322 322 322 320 320 320 320 320
317 330 332 330 328 326 325 325 327 327 326 326 324 325 324 322 321 320 321 320 320 321 321 321 322 323 323 323 322 321 320 321 321
316 329 331 330 327 324 323 322 326 327 325 327 325 324 324 324 323 322 320 320 321 321 321 322 323 323 324 323 323 322 321 322 321
318 328 330 329 327 324 323 320 326 324 323 324 324 324 323 323 322 322 321 320 320 321 321 322 323 323 324 324 324 325 326 325 322
327 327 328 327 326 325 324 320 321 326 327 322 323 322 323 323 322 322 321 321 320 320 321 321 322 323 324 324 324 326 326 326 325
329 329 328 324 324 325 323 320 320 322 322 323 326 326 326 325 324 324 324 323 322 321 320 321 321 322 323 324 325 325 325 326 325
326 326 328 326 324 323 321 320 321 322 322 328 330 330 330 325 322 321 321 322 323 323 321 322 321 320 322 324 325 325 325 325 325
323 323 324 324 323 321 320 321 320 323 329 329 331 331 329 326 327 325 326 325 324 322 324 324 322 321 322 324 325 326 326 326 325
320 321 321 321 321 321 320 318 322 329 331 331 330 329 329 330 330 329 329 327 326 325 324 324 323 322 322 324 326 326 325 325 324
319 321 319 321 319 318 321 327 330 331 331 330 330 326 327 329 328 329 329 329 327 328 326 324 323 323 325 326 326 325 323 321 324

GFSFLT1_850_thetae_123.txt.gz
Theta_e
340 338 330 334 334 336 330 331 329 324 319 317 317 318 318 329 330 329 327 317 313 316 315 315 315 315 316 321 322 318 324 325 320
340 338 332 331 333 335 331 331 331 320 314 313 313 315 327 330 330 331 319 317 317 322 315 315 315 316 317 321 322 324 325 319 319
339 337 330 329 333 334 331 331 330 316 312 312 312 319 329 330 330 329 317 316 316 318 315 316 315 315 316 316 318 317 318 317 321
340 335 326 329 331 334 332 331 323 313 312 314 315 320 329 330 327 324 316 315 315 315 314 315 314 314 314 315 315 315 315 316 317
339 333 324 326 331 333 331 329 315 313 314 315 315 320 327 329 330 325 314 314 314 314 314 314 314 314 314 313 313 313 313 313 314
336 331 323 322 329 333 327 318 313 313 315 315 316 324 328 329 327 316 315 315 314 314 313 314 314 314 314 314 314 313 313 313 314
335 328 325 330 331 331 322 314 313 314 315 316 321 327 327 329 327 317 316 316 316 315 315 315 315 316 316 316 315 315 315 315 315
337 327 327 329 330 325 319 313 314 317 316 319 326 326 327 328 323 318 318 317 317 317 317 317 317 318 318 318 318 317 316 316 317
335 329 330 331 329 322 316 318 326 325 324 325 326 326 327 328 325 318 318 318 318 318 318 319 319 320 320 319 319 319 318 318 318
335 331 332 332 330 327 321 329 329 327 326 325 326 326 327 327 328 319 318 318 319 319 319 320 321 321 321 320 320 320 319 319 320
334 331 332 331 331 330 328 329 329 329 329 328 328 328 327 327 328 324 319 319 319 320 320 321 321 322 322 322 320 320 319 320 320
333 332 331 331 331 329 328 329 330 330 330 330 329 329 328 327 324 325 325 320 320 320 320 321 321 322 323 323 322 321 320 320 320
332 330 331 331 330 328 328 329 330 330 330 330 329 329 329 329 329 325 322 324 320 320 320 321 322 322 323 323 323 323 321 322 320
332 329 329 331 330 329 328 329 330 330 329 329 329 329 329 326 327 327 326 325 322 325 322 321 322 322 323 323 324 324 325 325 325
329 335 330 331 331 329 328 328 329 330 329 329 327 326 323 322 323 325 326 327 326 321 324 324 322 322 323 324 324 325 327 327 326
329 332 332 331 330 329 328 327 327 328 329 328 325 326 326 326 326 326 325 326 325 323 324 324 327 326 324 324 324 325 325 326 326
328 330 331 330 330 330 328 325 323 324 323 327 331 330 331 330 328 328 327 324 325 326 324 326 326 326 327 325 324 324 325 325 325
330 330 330 329 329 329 326 324 322 325 322 324 331 331 330 328 328 328 326 327 326 326 325 324 324 326 326 326 325 324 325 326 326
331 331 331 329 328 327 324 322 321 323 325 330 329 329 329 330 330 330 330 329 329 329 327 327 325 324 324 323 322 323 325 326 326
325 326 327 327 326 324 322 321 321 320 330 331 330 330 328 328 328 329 328 328 328 328 325 327 327 325 323 322 322 324 326 326 325

GFSFLT1_850_thetae_126.txt.gz
Theta_e
339 330 328 333 335 334 331 330 330 330 330 329 323 322 327 327 321 317 316 318 316 319 322 322 322 322 323 322 327 326 321 328 325
339 333 334 335 336 331 330 327 322 319 317 318 318 327 329 329 324 317 316 320 321 321 321 321 319 320 322 321 322 319 321 325 322
339 334 332 334 335 330 330 330 319 314 313 313 321 329 330 328 322 317 318 325 323 320 320 317 320 320 318 318 317 316 318 318 317
339 333 330 332 335 330 330 331 317 312 312 314 325 330 329 325 318 316 316 321 318 316 316 316 316 315 315 315 315 315 315 315 318
339 333 328 332 335 331 330 326 314 312 313 317 325 328 328 328 320 316 315 315 315 315 315 315 315 314 314 314 314 314 314 314 316
339 332 328 332 334 331 330 321 313 314 315 319 324 327 329 327 320 315 315 315 315 315 315 315 315 315 315 315 314 314 314 314 316
338 331 326 332 332 332 327 315 313 314 315 321 326 328 328 325 317 316 316 316 315 315 315 316 316 317 317 317 316 316 316 316 317
336 333 328 328 331 332 320 313 314 315 316 323 325 327 328 325 318 317 317 317 316 316 317 317 318 318 318 318 318 318 318 318 318
335 329 326 330 331 329 316 313 314 315 318 324 326 326 327 324 318 317 317 317 318 318 318 319 319 320 319 319 319 319 319 319 319
336 326 326 331 330 324 314 316 321 323 324 325 326 326 327 325 320 318 318 318 318 318 319 320 320 321 321 320 319 319 319 319 319
335 324 327 331 327 320 316 328 325 325 326 325 326 326 325 324 321 319 318 318 319 319 319 320 321 322 322 322 321 320 319 319 320
335 323 329 330 329 319 326 329 328 328 328 328 326 325 323 324 322 321 320 319 319 320 320 320 321 321 322 323 322 322 320 320 320
334 328 330 330 331 326 328 329 329 329 329 329 329 328 328 326 325 324 320 320 320 320 320 320 321 321 322 323 323 323 322 322 321
333 333 331 331 331 328 329 329 330 330 330 330 329 329 328 328 329 327 324 324 322 320 320 321 322 321 322 322 323 324 324 325 325
333 332 331 331 330 328 328 329 330 329 329 329 329 327 326 324 323 323 324 327 326 324 322 321 322 322 322 322 323 324 327 327 327
333 332 331 330 329 328 328 328 329 330 329 328 326 324 324 325 325 325 326 326 326 324 324 323 324 324 323 325 324 324 324 325 326
333 331 330 331 329 328 327 326 329 328 329 327 329 330 331 330 325 326 326 325 325 326 326 325 325 326 326 327 325 324 324 324 325
333 328 330 331 330 328 326 325 326 326 327 326 329 330 330 328 328 328 328 328 329 328 327 326 327 325 326 326 326 323 322 323 325
330 332 331 331 330 327 326 324 323 323 322 323 329 331 330 328 328 329 329 330 329 328 327 328 326 326 325 325 326 324 323 322 324
328 330 331 329 329 328 326 325 324 322 322 325 329 329 328 327 328 327 328 328 327 328 325 325 326 326 326 325 324 322 322 324 325

GFSFLT1_850_thetae_129.txt.gz
Theta_e
335 322 336 336 338 334 328 334 334 334 332 328 325 326 325 321 316 316 321 327 324 323 322 322 323 323 328 323 318 321 321 322 321
335 322 335 335 336 331 329 330 330 332 328 321 323 322 319 317 315 315 316 327 326 323 323 321 321 320 319 318 319 325 321 319 323
334 330 332 335 333 329 327 322 321 321 320 322 327 324 320 318 315 316 319 321 323 319 318 321 318 319 317 317 317 318 316 319 321
336 332 332 335 332 329 326 319 315 314 316 326 328 326 323 318 316 316 317 317 317 317 316 316 316 315 315 315 315 315 316 319 319
337 331 333 335 331 329 329 321 313 312 319 327 329 327 320 316 316 316 317 316 316 316 315 315 315 315 315 315 315 315 316 317 318
338 331 331 335 332 329 330 319 312 313 321 325 326 322 323 322 317 316 316 315 315 315 315 315 315 316 316 316 316 316 316 317 317
338 332 328 334 333 330 328 314 313 315 320 323 327 325 326 322 316 316 316 316 315 315 316 316 316 317 317 317 317 317 317 317 318
338 333 329 332 333 331 327 313 314 315 321 325 328 327 325 321 316 316 316 316 316 316 317 317 318 318 318 318 318 318 318 318 318
338 333 328 331 331 330 321 313 314 317 324 325 327 326 323 320 317 317 317 317 317 317 318 319 320 320 319 319 318 318 318 319 318
338 333 326 327 329 329 315 313 314 319 324 326 326 325 322 320 317 317 317 318 318 318 319 319 321 321 321 320 320 319 319 319 319
338 333 325 323 327 328 314 313 315 319 324 325 325 324 323 321 319 318 318 318 318 319 319 320 320 321 322 322 322 321 319 319 319
337 333 324 325 328 324 313 318 321 324 325 325 325 324 324 321 321 320 318 319 319 319 319 320 320 321 322 322 322 322 321 321 320
336 334 324 327 328 320 317 323 325 326 326 325 324 325 324 322 321 320 320 320 319 319 319 320 320 320 321 322 323 323 323 322 323
336 334 324 328 326 317 322 327 327 328 328 328 327 328 328 327 326 324 323 322 322 321 321 320 321 321 321 321 322 323 323 324 325
336 334 324 329 326 320 326 327 328 328 329 329 329 329 328 327 327 326 324 324 323 323 323 323 322 322 322 322 322 323 324 326 327
335 332 325 329 330 325 327 329 329 329 329 329 329 328 327 324 323 324 324 325 325 324 326 326 325 325 325 324 326 325 324 324 325
333 332 329 331 331 328 328 329 330 329 329 329 327 325 327 329 328 326 326 325 325 326 327 326 325 326 325 325 327 326 324 324 324
334 331 331 331 330 328 327 328 329 328 329 327 326 330 330 329 327 328 328 328 329 329 328 327 326 326 326 325 326 326 325 324 324
333 332 331 330 329 328 327 327 328 328 327 327 325 326 327 328 328 329 329 329 329 329 328 328 327 327 326 324 325 326 326 325 323
333 332 331 329 328 329 327 327 328 327 325 324 326 329 329 327 326 329 329 328 328 327 326 324 324 325 324 326 325 324 324 322 324

GFSFLT1_850_thetae_135.txt.gz
Theta_e
316 335 335 322 336 334 334 334 334 333 332 329 323 316 314 315 317 317 320 326 330 324 331 328 325 329 327 328 329 329 329 327 327
322 337 338 329 330 335 334 331 332 331 329 323 318 317 315 315 317 319 321 330 326 325 328 325 323 327 327 324 326 326 324 324 326
329 335 337 334 327 331 333 332 331 330 326 318 316 316 315 316 316 318 332 331 328 325 323 321 321 320 319 320 320 321 319 323 320
327 333 336 335 328 326 331 332 331 329 320 316 317 316 315 316 317 320 323 327 322 321 316 316 318 317 316 316 317 317 318 319 319
331 330 335 336 331 327 329 331 330 323 317 318 319 317 315 316 317 319 318 323 317 316 315 315 315 315 315 316 316 317 317 318 318
334 327 334 335 333 328 326 325 322 317 317 321 321 319 316 317 318 317 317 317 316 315 315 315 316 316 316 316 317 317 317 317 318
337 332 333 335 332 327 320 316 315 314 317 321 321 317 316 316 317 316 316 316 315 315 316 317 317 317 317 317 317 317 317 317 318
338 334 333 335 333 327 322 314 313 314 317 320 320 322 320 317 316 316 315 315 315 316 318 318 319 319 318 317 317 317 318 317 318
337 336 333 333 333 328 328 313 313 315 319 321 321 323 320 316 316 316 316 316 316 317 319 320 320 320 320 320 319 318 318 318 318
339 337 334 330 333 329 328 313 314 317 320 321 323 322 320 317 316 316 316 316 316 317 319 320 321 321 321 321 321 320 319 319 318
338 338 335 330 333 330 328 313 314 318 320 322 323 322 320 317 316 316 316 317 317 318 318 319 320 321 321 321 322 321 321 320 320
336 338 337 331 331 331 328 313 316 321 321 323 323 322 321 319 316 317 317 317 318 318 318 319 319 320 320 321 321 322 322 322 321
336 337 337 334 329 332 329 313 315 322 323 322 323 322 322 321 319 317 317 318 318 318 318 319 319 319 320 320 321 321 322 322 322
336 336 336 335 329 331 329 313 315 321 324 323 323 323 322 321 320 320 319 320 319 320 319 320 320 321 321 322 322 323 324 322 324
335 334 333 333 331 331 328 313 315 321 323 324 324 324 323 322 323 323 324 322 322 322 322 323 325 325 325 324 325 324 324 325 326
334 332 331 333 334 329 329 314 314 321 323 324 325 325 326 326 326 326 325 324 324 323 324 326 326 326 325 325 326 325 325 327 327
333 331 329 334 335 329 329 315 314 318 323 324 325 327 327 327 327 326 325 324 324 324 324 326 326 327 326 326 326 326 325 325 325
332 333 330 332 335 330 326 320 316 321 324 324 326 327 328 327 327 325 323 324 324 324 325 327 327 327 327 327 326 325 324 323 325
328 327 330 331 334 330 325 323 316 321 324 326 327 326 324 324 324 323 325 325 325 326 327 327 328 328 326 325 326 325 323 324 325
326 329 331 331 333 332 326 325 318 323 324 326 327 326 324 323 324 325 325 327 327 328 327 327 328 326 323 323 325 324 325 324 323

GFSFLT1_850_thetae_138.txt.gz
Theta_e
313 317 324 322 333 336 337 336 334 333 332 330 325 314 314 315 317 319 331 325 324 331 326 330 329 328 328 329 327 329 327 324 322
320 330 322 333 330 336 335 331 332 332 330 325 317 314 314 315 316 319 325 331 331 331 327 329 330 328 326 327 325 326 327 324 322
329 336 330 329 335 332 332 329 330 330 327 318 316 315 315 316 318 319 332 331 331 330 324 326 322 322 322 322 320 320 324 318 318
326 333 336 330 330 333 332 331 329 329 323 316 316 315 315 316 318 320 332 330 327 321 317 321 318 318 316 317 319 318 319 318 317
326 331 335 334 328 329 330 331 330 328 319 315 316 315 315 316 319 319 323 322 322 315 316 315 315 315 316 316 317 317 317 318 318
330 329 334 335 330 326 329 328 330 326 316 316 317 316 316 317 319 318 320 321 315 315 315 316 316 316 316 316 317 317 317 318 318
337 330 334 335 333 327 329 327 327 322 316 318 318 317 316 317 317 317 316 316 315 316 316 317 317 317 316 317 317 317 317 317 318
339 333 333 336 334 328 326 324 319 317 316 319 318 316 316 316 316 316 316 315 315 317 318 318 319 319 318 317 317 318 317 317 318
338 335 332 335 335 330 324 319 314 314 316 321 318 320 319 316 316 316 315 315 315 317 318 319 319 320 320 320 319 319 319 318 318
338 337 335 333 333 331 325 321 314 313 316 321 321 321 319 316 316 315 315 315 316 317 318 320 320 321 321 321 321 321 320 320 319
338 338 336 335 331 332 328 326 317 313 316 320 321 322 320 317 316 316 316 316 316 317 318 319 320 320 321 321 321 321 321 321 321
338 338 337 337 333 333 329 327 315 313 317 319 322 323 321 318 316 316 316 316 317 317 318 319 319 319 320 320 320 321 321 322 322
339 337 337 337 335 332 330 327 315 314 318 319 322 322 322 320 317 316 316 317 317 318 318 319 319 319 320 321 322 322 321 321 322
334 336 336 336 336 331 331 326 316 313 319 321 322 323 322 321 320 317 317 317 318 318 319 320 320 321 322 323 324 326 326 326 325
337 337 337 334 337 332 332 329 317 313 318 323 323 324 323 322 321 320 320 320 320 321 321 322 323 325 325 325 325 326 326 327 327
331 338 336 334 336 334 331 330 319 314 321 324 324 324 323 323 322 323 323 323 323 323 324 323 325 326 326 325 325 326 326 325 326
335 333 335 335 334 333 331 331 323 314 322 324 324 324 324 324 323 325 324 324 324 324 324 324 325 326 326 327 326 326 326 325 324
328 336 335 335 332 329 332 330 326 314 321 323 323 325 325 323 324 324 324 324 324 324 324 323 325 327 327 327 326 326 326 323 323
327 334 334 332 330 328 332 331 329 314 318 323 323 323 322 324 324 323 323 324 323 324 324 325 327 327 327 327 324 323 324 323 323
330 330 334 331 330 328 330 333 330 320 314 317 321 324 324 323 322 322 321 322 323 324 325 327 327 327 327 326 323 323 324 324 324

GFSFLT1_850_thetae_141.txt.gz
Theta_e
315 320 333 319 330 333 337 336 333 333 333 331 323 314 314 317 320 326 326 329 331 330 329 323 329 328 326 326 327 327 323 322 321
315 322 325 322 332 335 336 335 333 332 331 328 317 314 315 317 320 322 330 330 329 329 329 324 327 328 328 326 328 324 323 321 323
317 322 321 326 331 334 334 331 332 331 328 320 315 314 315 316 319 323 327 330 329 326 327 323 324 323 322 321 324 326 319 319 319
321 334 326 331 329 333 330 328 329 329 325 316 315 314 315 317 318 325 330 329 330 324 322 319 319 318 318 319 318 320 318 318 317
331 335 332 330 332 331 331 330 328 329 322 315 315 314 315 317 319 321 323 330 322 325 320 316 316 316 316 317 317 318 318 318 318
325 329 335 333 331 331 330 330 329 328 320 316 316 314 315 317 318 318 317 318 316 317 316 315 316 316 316 316 317 317 318 318 318
334 331 334 336 332 330 329 329 329 328 318 316 318 315 316 318 318 317 316 316 316 316 316 316 317 316 316 317 317 317 317 318 318
338 334 333 336 334 330 329 330 329 327 317 316 317 317 316 317 317 316 316 315 316 317 317 318 318 318 317 317 318 318 317 318 318
338 337 333 333 335 333 328 329 329 325 316 317 317 316 316 317 317 316 315 315 315 317 318 318 319 319 319 320 319 319 319 319 319
338 338 337 332 332 334 331 327 325 322 316 318 319 317 318 317 316 316 315 315 315 317 318 319 319 320 320 321 321 321 321 320 321
337 338 338 335 332 333 333 327 322 317 315 317 320 321 320 317 316 315 315 315 315 316 317 319 319 320 320 320 321 321 321 321 321
338 337 338 337 334 334 334 328 323 317 315 317 319 322 321 318 316 315 315 315 316 316 317 318 319 319 319 319 319 320 320 321 321
339 338 337 337 336 335 334 330 326 320 315 317 320 321 321 320 317 315 316 316 316 317 317 318 318 319 319 320 323 328 327 325 323
337 338 337 337 336 336 334 332 328 325 316 318 320 322 322 321 319 316 316 316 317 317 318 318 319 320 321 322 326 327 328 328 327
335 336 335 338 336 336 335 333 329 326 316 318 322 323 323 322 321 319 317 317 317 319 319 319 320 321 324 325 325 325 326 326 326
326 332 333 333 337 335 336 333 331 326 317 321 323 324 324 323 321 320 319 319 319 320 321 322 322 324 326 326 326 326 326 326 326
316 326 332 335 333 335 336 335 332 324 316 321 323 324 324 324 322 321 320 320 322 322 323 323 323 324 325 326 326 326 326 326 325
313 323 330 333 335 334 336 335 332 330 318 319 322 323 324 323 322 321 320 321 323 323 323 323 323 323 325 326 327 326 325 325 324
312 316 323 333 332 335 335 334 333 331 329 320 323 322 321 322 322 320 320 322 323 323 323 323 322 323 326 327 327 324 323 323 324
312 313 322 327 331 331 331 334 334 331 330 323 319 323 323 321 320 321 319 321 322 323 323 323 323 325 326 326 326 324 323 323 323

GFSFLT1_850_thetae_144.txt.gz
Theta_e
318 315 316 321 328 332 334 333 333 334 334 331 323 314 315 327 330 331 332 329 329 329 326 330 328 325 326 323 323 326 326 324 327
315 323 326 320 330 333 336 335 333 333 331 326 317 314 316 331 330 330 331 330 329 329 325 324 325 326 326 324 324 325 321 320 321
317 335 332 321 333 335 337 334 332 331 329 322 315 314 316 329 330 330 335 326 325 329 325 326 327 326 320 324 323 320 318 318 318
325 334 328 326 334 335 336 332 331 330 326 318 315 314 317 329 329 330 332 326 326 320 320 323 324 324 321 318 320 318 318 318 318
323 329 328 331 332 335 334 331 331 329 325 316 315 315 317 329 330 329 330 326 319 319 317 317 317 317 317 317 318 318 318 318 318
326 333 333 331 332 333 333 331 330 329 324 316 315 315 326 329 329 329 325 323 319 317 316 316 316 316 316 317 317 318 318 318 319
336 334 334 333 333 332 333 332 330 329 324 317 317 319 326 329 329 329 318 318 319 316 316 316 316 317 317 317 317 317 318 318 319
338 335 334 335 334 332 332 332 331 330 330 327 323 326 327 328 328 327 317 320 318 317 317 318 318 318 318 318 318 318 318 318 319
338 337 335 334 335 335 331 331 331 331 329 327 327 326 326 327 327 325 317 322 319 317 318 318 319 319 320 320 320 320 320 320 320
338 338 337 335 335 336 335 333 332 331 329 326 327 324 323 320 323 327 316 316 318 317 318 319 319 320 320 321 321 321 321 321 321
339 338 338 337 336 335 337 335 333 331 329 326 324 323 320 319 319 322 317 315 315 316 317 319 320 320 320 320 320 321 321 321 321
339 339 337 338 337 335 335 335 333 330 328 326 326 325 325 321 318 317 321 315 315 315 316 318 319 319 319 319 319 319 320 321 321
336 339 338 337 337 337 334 335 333 330 327 325 326 327 325 324 323 317 316 317 316 316 316 317 318 319 319 319 322 327 328 328 327
329 336 339 339 337 337 336 334 333 330 326 325 326 326 327 323 321 319 316 316 316 318 317 317 318 318 319 320 325 328 328 329 329
316 334 337 338 338 338 337 335 334 333 326 324 324 326 326 326 322 320 317 316 316 316 317 317 318 318 319 321 325 325 325 326 326
320 328 330 331 336 338 337 336 335 334 328 322 322 325 326 325 323 321 321 317 316 317 317 319 319 319 321 324 326 326 326 326 326
309 320 330 334 336 333 336 336 336 335 330 325 323 324 324 324 323 324 321 321 319 318 318 320 320 321 322 325 326 326 327 326 325
309 312 326 332 333 335 334 336 335 334 333 327 323 323 323 324 324 323 322 321 320 319 320 321 321 322 322 324 325 326 327 325 324
310 310 317 326 331 335 333 334 335 335 335 330 324 322 323 323 325 326 323 321 321 321 322 322 322 322 323 323 325 326 326 323 323
308 309 311 315 324 330 330 333 330 333 335 334 329 321 321 320 321 324 325 324 321 322 323 323 323 323 323 323 326 326 326 323 322

GFSFLT1_850_thetae_150.txt.gz
Theta_e
328 319 326 335 337 334 334 337 335 333 332 326 315 320 330 332 332 332 331 331 328 324 326 324 327 327 323 328 327 322 324 327 318
333 318 318 328 333 334 334 333 333 333 331 323 315 325 330 332 332 330 329 329 327 327 329 324 329 321 322 327 320 325 324 322 321
336 317 320 321 329 331 335 333 332 332 328 321 315 325 331 331 331 330 330 329 329 327 328 328 322 324 319 318 319 318 319 319 318
334 320 332 326 325 331 335 335 331 330 328 321 315 322 330 330 329 331 330 324 329 327 322 321 319 319 319 318 318 318 319 319 319
334 324 332 330 327 331 334 335 331 330 327 321 315 317 328 330 330 332 329 326 328 323 320 322 320 318 318 318 319 319 319 319 320
335 327 329 333 326 332 335 336 331 329 327 322 315 314 326 330 328 330 330 329 320 320 319 317 317 317 317 318 318 319 319 319 320
335 332 327 331 327 332 334 334 331 330 328 325 315 314 324 329 330 330 329 325 320 320 316 317 317 317 317 317 317 318 319 319 320
338 336 330 333 329 332 333 334 333 330 329 327 320 315 324 329 329 329 328 322 319 318 317 317 317 318 318 318 319 319 319 319 320
339 338 337 335 333 331 334 333 332 331 330 331 325 315 326 328 329 328 326 319 317 321 318 318 318 319 319 319 320 320 320 320 320
340 340 338 338 336 333 335 334 333 332 330 332 330 323 325 327 329 329 326 319 315 318 318 318 319 320 320 320 320 320 320 320 320
341 340 340 339 338 335 334 335 335 332 330 332 330 328 327 326 327 328 326 322 316 316 318 319 319 320 320 320 320 319 319 320 320
338 339 340 339 338 336 336 335 336 334 333 333 332 328 327 326 326 326 324 322 317 315 316 318 319 319 320 319 319 318 319 319 322
324 336 338 339 339 338 337 337 336 335 334 333 332 329 327 327 325 326 325 320 319 316 315 316 317 318 318 318 318 318 318 324 329
313 315 322 335 338 338 338 337 337 336 334 333 332 329 327 327 326 326 324 322 319 317 316 315 315 316 317 318 317 317 318 327 330
312 313 313 320 329 335 337 338 338 337 335 334 332 330 327 327 327 327 326 325 323 319 316 316 315 315 316 317 317 317 318 325 325
313 313 314 314 318 325 334 334 338 338 336 335 333 331 327 327 327 326 327 327 324 320 318 316 315 316 316 317 317 317 318 325 325
314 315 316 314 315 319 326 332 333 336 336 335 333 328 327 327 327 327 327 326 326 322 318 317 315 315 316 316 316 317 318 324 325
314 315 316 318 317 315 317 327 331 333 333 334 332 327 327 327 327 326 327 325 326 322 320 317 316 315 315 316 316 318 319 322 325
310 314 316 316 318 320 319 321 328 327 330 332 331 331 328 326 326 326 326 325 325 323 320 323 318 317 315 316 316 317 319 320 323
312 312 315 317 315 320 322 321 322 329 330 332 331 331 330 326 325 326 327 325 323 320 319 321 319 319 317 317 316 316 318 320 322

GFSFLT1_850_thetae_153.txt.gz
Theta_e
329 317 331 337 335 334 336 335 331 331 328 316 325 328 331 330 330 330 330 328 324 329 326 326 327 324 327 321 321 322 325 324 317
335 320 320 331 335 334 334 333 331 331 329 317 321 327 331 331 330 329 329 328 328 329 325 330 321 320 327 321 325 323 320 320 321
337 324 317 325 330 331 335 329 332 330 328 320 318 328 331 330 329 329 329 327 327 324 328 324 327 319 319 318 319 319 319 319 318
337 329 320 320 326 328 333 334 332 330 328 320 316 326 329 329 330 328 327 327 328 329 322 325 322 319 318 319 319 319 320 319 319
336 332 323 329 321 328 331 335 332 330 327 320 315 324 328 329 328 330 329 326 324 320 318 327 321 318 318 319 319 319 319 320 320
335 333 325 331 327 330 331 334 333 329 328 322 315 317 327 328 328 329 328 327 323 316 316 317 317 317 318 318 318 319 319 319 320
335 335 328 330 331 327 332 334 334 329 328 326 317 314 327 328 329 327 327 328 323 316 317 316 316 317 317 317 318 318 318 319 319
338 336 334 329 331 328 331 333 334 330 328 327 324 315 326 328 329 328 328 328 322 317 317 317 317 318 318 318 319 319 319 319 319
338 338 337 333 329 331 330 332 332 332 330 328 326 317 318 328 329 328 325 326 321 316 317 317 317 318 319 319 320 320 320 320 320
341 339 339 337 335 333 330 332 333 332 331 329 327 325 318 326 328 328 327 325 321 315 318 318 318 319 320 320 320 320 320 320 320
340 340 340 339 338 338 335 332 333 333 332 331 328 329 325 325 326 328 327 325 321 316 315 319 319 319 320 320 320 319 319 319 319
338 339 339 340 339 338 338 336 333 335 334 331 330 331 330 325 326 326 326 323 321 318 315 316 319 319 319 320 319 319 318 318 319
325 334 338 339 339 339 338 337 335 335 336 333 331 332 331 328 327 326 324 322 320 319 316 314 316 318 319 319 319 318 318 318 321
317 320 321 331 338 339 336 337 337 336 336 335 334 332 332 329 327 326 324 322 320 319 317 315 314 315 317 318 318 318 317 317 322
311 312 314 314 318 329 336 336 336 337 336 336 334 334 332 331 328 327 326 324 322 321 318 317 315 314 314 316 317 317 317 317 320
307 309 311 312 312 313 318 329 334 335 337 335 335 334 332 331 329 327 327 326 324 324 321 318 317 315 315 315 316 316 317 317 318
305 308 310 312 313 313 313 318 327 331 333 336 334 332 332 331 328 327 327 326 325 323 323 320 318 316 314 314 315 316 316 317 318
308 308 311 313 315 315 315 314 317 327 331 332 333 330 330 331 329 327 327 327 326 324 323 322 319 319 317 315 314 315 316 317 318
308 308 311 315 314 315 318 316 316 318 326 328 329 331 330 329 328 328 328 327 327 326 324 323 320 319 318 316 315 314 315 316 318
306 308 309 309 315 316 316 319 319 317 320 325 327 329 330 329 328 327 328 327 327 327 326 324 322 319 319 317 316 315 314 315 317

GFSFLT1_850_thetae_156.txt.gz
Theta_e
327 317 335 335 332 333 335 335 330 331 325 318 324 326 328 329 328 329 328 325 325 323 326 329 326 330 321 320 324 324 323 318 319
336 321 321 333 335 333 331 332 330 331 326 318 321 325 328 329 329 329 328 327 330 327 329 323 324 329 322 327 324 321 321 321 320
339 332 318 324 332 333 334 328 331 330 327 318 320 325 328 329 328 326 325 324 325 329 327 327 325 321 319 323 323 320 319 319 319
339 338 322 320 327 329 331 332 332 330 328 320 320 327 329 328 328 327 324 325 320 325 321 322 322 321 320 320 319 320 320 319 319
338 338 332 324 324 329 328 334 333 330 327 322 316 324 328 328 329 328 329 326 319 317 316 317 318 318 319 319 319 319 320 320 320
336 336 335 324 332 324 328 331 334 330 328 322 316 323 326 325 326 329 330 326 327 319 317 319 318 318 318 319 319 319 319 320 320
336 335 334 327 330 333 327 331 334 333 329 326 318 315 323 324 324 324 326 325 325 319 317 316 317 317 318 318 318 318 319 319 320
337 337 335 333 329 333 328 333 333 334 330 328 324 315 318 323 322 324 326 326 324 318 316 317 316 316 317 317 318 318 319 319 320
340 338 337 336 333 330 330 328 332 333 332 329 327 322 317 324 324 324 326 325 324 320 316 317 317 318 318 319 319 319 320 320 320
340 340 340 338 337 334 330 330 329 332 333 331 329 327 318 320 325 326 326 327 324 322 315 317 317 318 318 319 320 320 319 319 319
337 340 341 340 338 338 336 332 331 331 333 332 331 329 325 316 325 325 326 327 326 323 318 315 318 318 319 319 320 320 319 319 319
325 334 339 340 339 338 338 338 336 333 332 333 332 331 328 324 322 324 325 327 326 324 321 315 316 318 319 319 319 319 319 319 318
317 322 326 335 340 340 339 338 338 337 334 333 334 333 330 329 328 325 324 325 324 324 321 319 315 316 318 319 319 319 318 318 318
311 313 319 323 328 336 340 338 337 337 337 335 334 334 331 330 330 329 327 326 324 322 321 319 318 315 315 317 318 318 318 317 317
307 309 311 315 320 323 327 335 338 335 335 336 335 335 333 333 332 331 329 327 326 323 320 320 319 317 315 314 315 317 317 317 317
307 306 308 310 312 315 319 319 324 332 335 334 335 335 335 334 333 332 331 329 327 326 323 321 319 318 317 315 314 314 315 316 316
310 307 307 307 307 309 311 314 316 319 327 332 336 334 334 334 333 333 331 330 328 327 326 324 321 319 318 317 315 315 315 316 316
310 308 307 306 308 311 311 311 314 315 316 320 328 331 331 332 333 332 332 329 328 327 327 326 325 321 319 320 318 316 315 315 316
310 309 308 307 307 307 311 315 313 315 318 315 319 326 329 330 331 331 332 330 330 329 328 328 327 325 322 320 320 318 315 315 315
309 308 307 307 308 308 313 316 317 317 321 322 319 320 325 328 328 329 329 329 329 330 329 328 327 328 326 323 320 318 317 317 315

GFSFLT1_850_thetae_159.txt.gz
Theta_e
330 318 332 334 333 336 336 335 330 330 325 321 320 321 325 328 325 328 323 322 321 322 326 325 330 324 322 326 328 327 320 322 322
337 327 320 335 335 331 334 334 329 330 326 321 319 321 324 326 328 328 325 328 327 325 326 323 322 326 327 327 322 323 326 323 320
339 337 324 321 335 335 333 332 331 330 327 321 320 320 323 327 327 325 326 324 329 326 329 321 327 320 320 322 321 319 320 319 319
339 339 337 321 323 333 333 333 330 331 328 322 319 324 325 325 326 324 323 326 322 328 327 329 320 320 321 319 320 320 320 319 320
339 338 338 334 321 323 330 331 333 331 329 324 319 322 325 326 324 324 327 326 322 321 320 324 322 319 319 319 319 319 320 320 320
337 337 336 336 326 327 324 328 333 334 330 326 319 320 323 324 324 324 328 328 324 319 316 317 319 318 318 319 319 319 319 319 320
335 337 337 335 333 326 331 324 329 333 332 328 321 317 321 324 322 323 327 327 325 321 316 316 317 318 318 318 318 318 318 319 319
338 336 335 336 334 329 331 332 328 331 334 330 326 319 318 319 322 322 323 325 326 323 318 316 316 317 317 317 317 318 318 319 319
340 339 339 337 337 334 330 331 330 331 333 333 328 326 318 316 319 322 323 325 326 325 320 316 317 317 317 317 318 318 319 319 319
337 338 339 339 339 337 335 331 331 329 330 332 332 328 326 319 317 320 323 324 325 326 323 318 317 317 317 318 318 319 319 319 319
327 332 336 338 340 339 338 336 333 331 330 331 332 331 328 327 320 320 321 325 326 326 326 322 315 317 318 318 319 319 319 319 319
319 323 325 327 335 339 339 338 338 336 332 330 331 332 331 329 326 318 319 323 325 326 326 325 321 315 318 318 318 319 319 319 319
311 313 317 322 323 328 337 339 338 337 337 336 332 332 332 331 329 324 319 321 323 325 325 325 322 319 315 318 318 318 318 319 318
306 309 311 313 317 320 324 334 337 338 337 337 337 335 333 333 332 329 327 324 323 323 323 324 323 321 318 315 316 318 318 319 318
309 307 306 308 311 313 317 321 327 335 336 336 337 336 336 334 334 331 329 329 328 326 325 325 323 321 321 318 315 315 316 317 318
310 310 309 308 306 309 311 314 319 324 325 327 334 334 334 335 334 333 331 331 331 330 328 326 324 321 321 320 318 316 315 315 315
310 310 310 310 309 307 308 310 312 315 321 329 328 331 333 332 332 334 333 332 332 332 330 328 326 325 321 320 320 319 317 315 315
310 311 311 310 309 309 307 307 310 314 313 315 327 327 328 329 331 332 333 333 333 332 331 330 328 327 326 324 321 322 320 317 315
311 311 311 310 309 308 307 307 307 314 319 320 319 319 325 327 329 330 330 330 331 332 332 330 330 328 328 328 327 324 321 321 319
311 310 310 309 308 308 308 309 310 309 315 320 321 321 324 324 327 327 328 329 330 330 330 330 330 329 329 328 328 328 326 320 320